Back to catalog

FENGYUN 1C DEB

AliveSSO
NORAD 30662·DEBRIS·🇨🇳 China

Launched May 10, 1999 from Taiyuan Satellite Launch Center

Loading…

Next Passes (next 24 hours)

TLE

FreshSource: Space-Track

Epoch: Sep 14, 2026, 03:18 UTC

1 30662U 99025APU 26257.13794336  .00001775  00000-0  79166-3 0  9992
2 30662  99.0334 325.7960 0033536 200.0375 190.2736 14.23800912  5481

Track FENGYUN 1C DEB in real time with AllMySat

Download on the App Store